Theta_e
329 327 327 325 326 327 326 324 324 323 322 322 322 321 320 320 315 317 317 315 315 313 314 315 312 317 318 318 317 317 317 317 316 315 315 315 315 315 315 315 315 316 317
329 328 328 326 326 326 324 325 325 324 323 322 322 321 320 319 314 314 316 314 315 314 314 313 313 316 319 319 320 318 318 316 315 314 315 315 315 315 315 316 315 316 316
329 329 328 328 325 326 324 324 324 324 323 322 321 321 321 318 316 315 315 316 317 318 315 316 318 315 319 322 322 322 321 320 318 316 318 319 319 319 318 318 317 316 315
329 329 329 328 327 326 326 324 323 324 323 323 322 321 321 319 317 315 315 317 317 316 315 318 320 320 319 321 323 323 322 322 321 320 319 321 322 322 321 319 318 316 316
329 329 329 329 328 327 326 323 323 324 324 324 323 321 321 320 318 317 316 316 318 316 317 319 321 322 321 321 322 322 322 322 320 322 322 321 321 322 323 322 320 319 318
328 329 329 329 329 327 327 324 322 323 324 323 322 322 321 321 319 316 317 318 319 319 319 321 321 320 321 321 321 321 321 321 321 318 322 322 322 321 321 321 321 321 320
326 329 329 329 329 328 327 325 324 322 323 323 323 322 322 322 321 320 319 317 319 320 320 320 321 320 318 317 319 320 320 321 319 318 320 319 320 321 322 321 321 320 320
326 328 330 330 329 329 327 326 324 323 322 322 323 323 322 322 321 320 319 318 317 317 318 320 321 319 318 318 318 318 321 318 318 318 318 320 318 321 322 321 321 321 318
326 327 328 330 330 329 328 327 325 324 323 323 322 323 323 322 321 320 319 319 318 317 317 318 319 319 317 317 318 319 320 320 319 318 317 317 317 320 321 321 321 319 319
324 325 327 328 330 330 329 328 326 324 324 324 324 323 323 323 321 320 321 320 319 317 318 316 318 318 317 318 318 318 318 318 319 319 319 318 319 319 321 321 320 320 319
323 324 325 327 329 330 330 329 327 325 324 325 324 322 323 323 323 323 321 322 322 320 320 319 318 318 318 319 319 318 318 319 318 318 319 320 320 319 320 319 319 319 317
322 323 325 327 328 330 330 329 328 326 325 324 325 324 324 324 324 323 324 323 323 322 321 320 320 319 319 319 320 320 320 320 320 320 320 320 319 320 320 318 319 317 316
321 322 323 327 329 329 329 330 329 327 327 325 325 324 324 324 324 323 324 324 324 323 322 322 322 320 320 320 320 320 320 320 320 320 321 321 320 320 319 318 319 318 315
320 320 321 322 326 328 329 329 330 329 328 327 325 325 323 321 321 322 322 323 324 324 323 323 322 321 321 321 321 320 321 321 320 320 321 319 322 319 318 319 321 319 318
320 320 321 321 322 324 328 329 329 329 329 328 327 326 325 323 324 324 324 323 323 322 322 322 322 322 321 321 321 320 319 320 320 319 320 320 320 319 321 321 322 318 318
319 320 321 320 320 321 322 327 328 329 329 329 328 327 326 326 325 325 324 323 323 323 322 322 322 322 321 321 320 320 320 320 319 320 321 320 320 319 321 322 320 318 318
319 319 320 321 321 321 321 322 325 328 329 329 328 328 327 326 326 325 325 324 323 323 323 322 322 321 321 321 320 320 320 320 321 321 320 319 318 322 320 319 319 317 316
319 319 320 319 319 320 321 321 321 323 327 328 328 328 327 327 326 326 325 325 324 323 323 322 322 322 322 321 321 321 320 320 320 319 319 320 321 320 318 316 314 310 309
318 318 318 318 319 319 320 320 320 320 322 326 328 327 327 326 326 326 325 325 324 324 324 324 324 323 322 322 321 321 321 321 321 321 320 318 318 317 317 313 309 306 305
316 315 316 317 318 319 320 321 319 319 320 322 326 327 327 326 325 325 325 324 324 323 323 323 323 322 322 321 322 322 321 321 321 319 317 314 312 311 309 307 305 304 301
314 313 313 313 312 313 312 316 321 321 320 320 322 326 327 326 326 325 325 325 324 324 323 322 323 323 322 322 321 320 318 317 315 312 308 304 302 302 302 300 300 297 296
311 310 309 308 312 314 314 314 317 321 322 322 322 324 326 327 326 326 325 325 325 324 323 320 320 319 317 319 313 310 309 309 308 305 301 299 298 297 296 295 295 294 293
307 305 305 306 311 312 310 309 313 315 318 320 321 322 324 325 325 325 325 324 322 322 320 316 315 314 310 308 309 304 303 303 302 300 298 296 294 294 294 293 293 292 290
302 301 303 305 308 311 306 303 304 308 312 316 317 318 320 321 321 320 320 319 318 315 313 312 309 307 302 302 303 301 301 299 299 296 294 293 293 293 291 290 289 288 286
296 296 301 295 303 307 303 300 299 301 305 309 310 311 311 311 310 310 308 309 307 308 307 303 301 300 296 295 295 296 295 294 293 293 292 291 289 287 285 284 284 282 281
295 296 297 298 297 303 299 297 297 297 299 301 299 300 303 300 298 298 297 297 299 300 299 297 297 294 293 291 292 292 292 291 289 289 287 286 285 283 282 281 280 279 278
Wind_Speed
13 14 14 13 13 14 17 18 17 16 15 21 32 32 33 35 42 38 33 34 29 30 25 24 22 21 20 18 19 18 17 16 16 15 13 13 14 15 14 14 14 15 15
16 17 16 16 16 17 18 19 21 21 19 22 34 33 37 42 46 45 34 38 35 34 33 27 23 25 19 19 20 19 17 16 17 17 14 13 14 17 20 18 18 18 18
19 19 19 18 17 18 19 23 22 24 24 24 32 30 38 38 44 43 39 43 37 28 33 26 27 29 23 23 24 21 19 17 17 19 14 13 16 16 18 18 21 21 21
18 21 22 21 19 19 19 22 24 25 27 27 33 35 39 44 49 49 47 44 38 33 37 31 26 24 28 24 24 22 21 18 18 15 25 22 14 7 8 12 14 20 21
19 22 24 23 21 20 21 21 25 27 30 31 32 34 37 39 51 49 47 43 39 39 34 31 29 27 27 27 25 25 25 24 22 19 16 19 20 19 16 16 14 16 19
17 20 23 23 22 21 21 22 24 29 29 32 33 36 37 40 47 54 53 47 40 40 40 34 33 34 33 30 31 29 28 27 24 24 23 21 17 17 20 20 20 21 21
15 19 24 26 25 25 25 24 26 27 33 35 35 37 41 44 42 49 48 58 45 41 39 38 35 36 37 37 32 30 32 29 27 26 26 26 25 20 23 20 21 24 24
12 16 23 27 27 28 28 27 26 27 31 38 37 36 35 41 39 46 50 55 59 54 45 40 41 43 41 40 37 36 33 35 31 31 30 26 26 24 24 24 23 22 24
12 14 18 26 28 29 30 29 27 27 28 32 40 40 40 37 39 40 43 49 55 59 54 49 46 45 46 45 42 40 38 33 32 36 35 35 32 30 30 30 28 30 25
10 14 16 22 28 29 29 29 29 29 28 29 35 40 42 42 42 43 42 46 50 53 48 54 51 49 48 48 45 45 44 41 39 38 38 38 37 34 34 35 34 34 37
7 8 11 16 24 28 30 30 30 30 30 30 31 32 41 41 41 42 48 44 42 47 47 45 48 49 49 47 43 46 47 44 44 44 40 39 38 39 40 40 35 34 37
6 6 5 10 18 25 29 31 30 32 32 33 33 34 33 37 43 46 47 48 44 44 43 47 44 45 47 46 46 45 45 45 45 44 43 45 46 43 44 39 35 28 33
13 11 4 6 14 21 28 31 31 32 32 33 36 39 41 41 43 45 48 48 49 47 46 44 44 48 46 44 46 46 46 45 45 45 45 44 46 44 44 42 42 37 36
16 16 15 9 11 17 24 30 32 31 31 33 36 39 44 45 46 46 47 48 49 48 49 48 48 49 48 47 48 46 46 46 46 48 48 46 43 43 43 44 44 40 36
18 20 21 17 16 16 21 26 30 32 34 36 37 43 46 46 41 42 43 46 45 48 46 46 48 48 47 49 47 45 46 47 51 47 44 46 42 42 39 44 40 37 37
21 20 21 21 20 20 19 23 27 32 33 36 43 43 39 40 43 43 45 43 44 44 44 44 44 45 46 47 46 45 42 45 42 40 40 41 38 40 44 44 37 37 39
24 25 24 23 22 22 19 19 24 26 31 37 41 39 41 41 44 44 40 43 44 41 43 44 44 44 42 42 43 43 43 40 40 43 44 44 43 42 39 41 41 38 35
23 26 26 25 24 23 23 23 21 25 30 33 36 37 39 42 40 40 42 42 42 42 41 40 39 38 38 39 39 38 38 38 41 47 47 44 39 37 37 37 35 31 29
21 24 27 28 26 24 24 25 25 24 28 32 35 36 38 39 38 39 42 41 39 37 36 33 33 35 36 38 38 37 39 40 41 43 43 38 34 32 31 32 29 27 24
22 25 26 25 25 24 23 23 25 26 27 31 35 35 32 35 37 37 35 35 33 34 38 35 36 35 34 35 34 34 36 39 39 38 35 32 29 30 28 26 27 25 22
24 25 24 23 24 27 26 23 24 26 27 26 27 29 32 33 33 30 29 38 42 40 36 36 34 31 30 31 30 30 27 27 31 29 25 21 20 21 24 23 20 15 12
23 24 25 25 30 31 31 28 22 21 19 23 21 28 31 33 36 41 42 37 36 35 34 32 28 22 22 23 17 14 17 18 20 19 17 17 17 18 15 12 10 9 7
20 22 24 26 29 30 27 23 21 25 25 22 25 30 33 31 32 32 33 33 32 30 29 25 22 18 16 14 15 11 9 10 15 17 18 18 16 12 12 8 5 5 3
21 24 27 28 30 32 27 22 20 19 19 17 20 23 25 26 25 25 27 29 28 26 25 24 21 19 17 16 18 18 17 18 20 20 18 15 9 5 2 2 4 5 7
19 20 25 25 27 25 26 20 14 12 14 15 18 22 23 23 25 25 22 22 22 21 21 22 22 23 21 19 18 17 18 17 14 12 8 5 3 4 4 5 7 8 8
19 19 20 20 21 22 20 17 11 5 8 14 17 22 27 24 25 29 29 21 20 20 20 21 18 22 21 18 15 14 11 8 8 8 7 6 4 3 2 2 2 5 5
Wind_Direction
210 200 198 196 195 192 203 209 206 200 183 185 184 172 175 177 167 174 193 184 179 183 186 187 195 178 187 185 191 189 188 192 192 191 199 210 211 214 217 220 221 220 226
205 199 196 194 196 191 198 199 206 203 190 189 185 187 183 176 172 180 186 185 184 184 188 187 202 192 188 195 200 191 192 192 196 194 202 213 225 233 229 221 227 224 224
209 203 199 199 196 195 199 205 203 205 196 187 188 187 187 182 183 185 189 182 191 197 191 185 216 206 193 206 210 199 195 195 204 199 213 218 233 223 228 243 223 232 238
211 206 202 199 201 196 194 202 206 200 200 197 195 194 194 194 189 191 193 190 205 200 202 205 205 207 202 210 215 210 204 199 212 226 216 233 264 269 182 209 245 228 236
208 205 203 201 199 194 196 193 206 204 207 207 203 203 199 199 196 193 193 199 211 213 209 208 215 210 212 211 215 215 215 215 211 221 232 242 249 254 259 259 241 234 233
210 207 202 199 198 193 194 192 202 206 205 205 206 206 208 204 200 202 204 200 213 214 209 209 217 218 220 218 221 221 225 220 228 238 228 232 238 241 245 251 255 258 257
210 205 198 197 196 196 191 192 193 202 211 210 212 213 212 214 215 208 207 205 209 213 214 211 216 225 228 231 227 233 232 232 236 239 247 250 246 249 254 258 263 263 255
201 206 204 202 200 199 195 193 195 197 209 212 214 214 212 214 214 217 214 209 216 219 218 220 222 229 231 232 230 235 237 239 240 246 249 247 254 244 251 257 260 258 260
201 211 208 208 206 204 201 197 195 197 203 211 214 215 215 219 214 213 216 221 222 219 221 226 230 234 236 239 232 233 234 237 241 246 249 254 256 254 253 250 249 260 258
213 211 222 217 211 209 207 202 200 200 201 204 211 216 220 221 220 219 216 221 220 221 226 231 232 234 237 237 239 241 245 245 246 248 252 256 256 256 253 251 259 270 270
337 301 240 232 217 212 209 208 204 203 203 205 207 211 215 218 222 226 221 222 224 225 226 228 233 233 233 237 237 242 246 246 249 250 249 251 253 255 251 259 263 276 282
344 353 296 233 218 216 215 215 209 206 208 207 208 212 213 215 219 220 223 225 225 223 227 226 229 232 234 236 237 239 241 245 246 248 250 252 258 250 254 255 264 279 274
331 329 312 245 225 221 219 221 220 214 210 209 212 214 214 214 219 222 222 224 226 227 229 228 230 232 234 238 239 240 242 245 250 251 252 252 250 249 256 257 264 262 253
315 320 317 279 246 231 225 225 225 222 216 214 214 217 221 224 225 224 225 224 224 229 230 232 233 235 237 238 238 239 243 248 250 254 251 254 244 256 255 261 265 257 256
335 334 327 321 315 249 239 232 228 223 220 219 218 222 228 226 224 224 227 228 228 227 229 230 233 236 236 238 236 238 239 241 248 252 251 247 246 256 262 267 263 250 255
336 335 328 322 317 312 263 247 239 229 223 222 224 226 224 224 225 225 226 226 228 230 227 229 231 234 236 239 240 239 236 242 248 245 247 248 247 262 265 261 255 253 258
328 329 326 320 313 306 311 271 253 239 229 229 230 227 225 226 226 225 223 226 228 227 230 230 230 233 234 239 242 240 238 238 242 245 245 252 263 264 254 249 252 251 253
328 325 327 327 318 307 299 291 277 253 239 233 231 228 225 225 225 223 224 224 223 225 227 230 232 233 237 239 242 247 249 248 249 252 258 262 257 253 251 249 243 240 237
331 327 324 326 327 319 306 290 279 266 249 239 233 229 223 223 222 222 222 222 219 221 224 228 230 233 236 237 240 241 242 247 250 252 253 252 250 250 250 241 239 227 217
333 331 329 326 329 329 320 305 283 272 261 247 239 231 225 224 222 222 221 217 215 214 215 218 225 229 236 243 244 242 245 249 249 246 242 241 240 237 233 221 216 211 208
333 333 331 331 330 325 325 314 295 278 268 259 247 239 230 223 221 218 218 215 210 211 212 217 223 227 232 242 247 244 243 242 238 231 226 218 214 211 200 199 197 202 204
339 338 335 333 331 330 326 324 319 292 265 245 227 223 220 214 211 213 213 213 215 215 215 216 213 216 225 222 231 229 222 230 231 214 194 181 184 185 182 184 186 196 217
338 345 341 333 334 333 329 321 298 295 279 262 235 221 217 216 212 212 213 214 208 209 201 200 197 192 203 200 194 189 187 180 185 176 172 169 164 167 174 202 235 270 278
339 345 345 341 334 335 332 322 316 295 271 244 232 218 212 215 210 204 196 196 193 193 189 183 181 172 170 165 162 168 166 171 174 165 159 162 168 184 231 279 322 322 305
342 345 343 345 340 343 337 324 327 309 256 208 186 174 168 168 172 169 171 176 172 179 175 165 157 148 146 138 144 145 144 146 143 142 136 126 91 63 27 1 341 324 316
344 347 349 348 355 352 349 339 342 321 217 168 148 144 142 139 134 131 119 114 127 137 141 132 134 126 125 122 123 120 116 112 103 107 99 87 69 52 13 18 334 316 317